Regional Weather Roundup
Issued by NWS

Home | Current Version | Previous Version | Text Only | Print | Product List | Glossary On
Versions: 1 2 3 4 5 6 7 8 9 10 11 12 13 14 15 16 17 18 19 20 21 22 23 24 25 26 27 28 29 30 31 32 33 34 35 36 37 38 39 40 41 42 43 44 45 46 47 48 49 50
000
ASUS43 KLSX 291010
RWRMO

WEATHER SUMMARY FOR MISSOURI
NATIONAL WEATHER SERVICE SPRINGFIELD MO
500 AM CDT SUN MAY 29 2016

NOTE: "FAIR" INDICATES FEW OR NO CLOUDS BELOW 12,000 FEET WITH NO
       SIGNIFICANT WEATHER AND/OR OBSTRUCTIONS TO VISIBILITY.
       CURRENT SKY AND/OR WEATHER CONDITIONS ARE NOT AVAILABLE FOR
       CHILLICOTHE AND FARMINGTON.

MOZ001>031-035>038-043-044-053-054-291100-
...NORTHERN AND WESTERN MISSOURI...

CITY           SKY/WX    TMP DP  RH WIND       PRES   REMARKS
KANSAS CTY INT CLEAR     60  57  89 S8        30.04R
KANSAS C DTWN  CLEAR     64  59  83 CALM      30.03S
LEE`S SUMMIT   CLEAR     63  58  83 SW6       30.05R
ST JOSEPH      CLEAR     59  58  96 S6        30.03R
CHILLICOTHE      N/A     64  59  83 CALM      30.04R
KIRKSVILLE     CLEAR     61  58  90 W5        30.03R

$$
MOZ066>068-077>081-088>096-101>105-291100-
...SOUTHWEST MISSOURI...

CITY           SKY/WX    TMP DP  RH WIND       PRES   REMARKS
SPRINGFIELD    CLEAR     61  59  93 S5        30.08R
JOPLIN         CLEAR     63  62  97 S5        30.07S

$$
MOZ032>034-039>042-045>050-055>058-069>072-291100-
...CENTRAL MISSOURI...

CITY           SKY/WX    TMP DP  RH WIND       PRES   REMARKS
COLUMBIA       CLEAR     64  61  90 SW3       30.05R
JEFFERSON CITY CLEAR     63  61  93 CALM      30.04R
ROLLA          CLEAR     62  61  96 CALM      30.05R
SEDALIA        CLEAR     64  62  93 SW6       30.05S
WHITEMAN AFB   CLEAR     61  60  99 SW6       30.04S
WARRENSBURG    CLEAR     61  59  94 S5        30.05R

$$
MOZ051-052-059>065-291100-
...EAST CENTRAL MISSOURI...

CITY           SKY/WX    TMP DP  RH WIND       PRES   REMARKS
ST LOUIS INTL  PTCLDY    67  59  75 CALM      30.04R
SPIRIT OF STL  CLEAR     62  61  96 CALM      30.04R
ST CHARLES     CLEAR     65  62  90 CALM      30.03R

$$
MOZ072>076-082>087-097>100-106>115-291100-
...SOUTH CENTRAL AND SOUTHEAST MISSOURI...

CITY           SKY/WX    TMP DP  RH WIND       PRES   REMARKS
CAPE GIRARDEAU FOG       67  66  97 SE3       30.05S VSB 1/4
FARMINGTON     CLEAR     63  63 100 CALM      30.07R FOG
POPLAR BLUFF   MOCLDY    66  65  96 CALM      30.06R FOG
WEST PLAINS    CLEAR     64  61  90 CALM      30.09R FOG

$$




USA.gov is the U.S. government's official web portal to all federal, state and local government web resources and services.